小惑星A/2019 O4

A/2019 O4

English version
Home page
Updated on June 13, 2020

---------------------------------------------------------------------

・ プロフィール

発見日 2019年7月27日
発見光度 21.4等
発見者 Pan-STARRS 1 telescope (Haleakala)

・ 軌道要素

Epoch 2020 Feb. 1.0 TT = JDT 2458880.5
T 2020 Feb.  9.91633 TT                                 Rudenko
q   3.6444347            (2000.0)            P               Q
n   0.00522504     Peri.   61.80361     +0.43754315     -0.89561209
a  32.8909332      Node   354.91852     -0.69737504     -0.28166739
e   0.8891964      Incl.  115.08487     +0.56764781     +0.34429996
P 189              H   15.5
From 45 observations 2018 Aug. 6-2020 May 20, mean residual 0".3.

・ 光度変化

        H = 15.5  G = 0.15

---------------------------------------------------------------------

軌道要素はM.P.E.C. 2020-L06に掲載されたものです。
光度グラフはComet for Windowsで作成したものです。

---------------------------------------------------------------------

Copyright(C) Seiichi Yoshida (comet@aerith.net). All rights reserved.